Location: Bullenkuhlen
(53.7689°N, 9.7495°E)
Time: 18:01:41
(UTC+00:00)

Cosmos-2242 - Pass Details

Date: 09 April 2020
Orbit: 590 x 618 km, 82.5° (Epoch: 29 May)

Event Time Altitude Azimuth Distance (km) Brightness Sun altitude
Exits shadow 20:08:38 29° 117° (ESE) 1,122 3.8 -16.0°
Maximum altitude 20:09:36 33° 90° (E) 1,044 3.8 -16.1°
Drops below altitude 10° 20:13:31 10° 27° (NNE) 1,983 5.8 -16.6°
Sets 20:15:55 0° 18° (NNE) 2,897 6.8 -16.9°
